Location: ?????
(44.5357°N, 135.0583°E)
Time: 09:54:08
(UTC+00:00)

Daily predictions for brighter satellites

Satellite Brightness Start Highest point End
(mag) Time Altitude Azimuth Time Altitude Azimuth Time Altitude Azimuth
CZ-4 R/B 3.9 12:02:09 10° SW 12:04:08 14° W 12:06:08 10° WNW
Cosmos 1805 4.2 12:01:42 10° NNE 12:04:22 23° ENE 12:04:40 22° E
USA 305 4.5 12:05:29 10° W 12:08:20 19° SW 12:09:53 15° SSW
CZ-4B R/B 3.7 12:06:23 27° SE 12:08:44 51° ENE 12:13:25 10° N
Meteor 1-25 Rocket 4.5 12:03:54 10° N 12:09:27 54° ENE 12:12:22 27° SE
Cosmos 1933 3.2 12:07:54 31° SSE 12:09:30 60° E 12:13:16 10° NNE
Cosmos 1992 Rocket 4.4 12:04:24 10° SSW 12:09:34 66° WNW 12:14:46 10° NNE
Cosmos 2219 Rocket 3.7 12:06:26 10° N 12:11:06 25° NE 12:14:23 16° E
USA 186 2.1 12:10:20 32° SSW 12:11:13 47° W 12:13:53 10° NNW
Cosmos 2061 Rocket 4.3 12:07:12 10° SSW 12:13:22 69° W 12:19:40 10° N
Cosmos 1464 Rocket 4.4 12:10:40 25° SE 12:13:45 43° E 12:19:30 10° NNE
CZ-2C R/B 3.1 12:17:39 29° ENE 12:17:39 29° ENE 12:19:56 10° N
USA 245 4.3 12:17:39 24° SSE 12:21:21 90° S 12:27:02 10° NNW
NOSS 3-3 (C) 4.4 12:17:07 10° SW 12:22:14 56° NW 12:28:21 10° NNE
Cosmos 1602 Rocket 3.5 12:23:06 10° N 12:27:25 72° E 12:28:51 41° SSE
Cosmos 2322 Rocket 2.5 12:23:45 10° NNW 12:29:19 54° ENE 12:31:50 31° ESE
Cosmos 2082 Rocket 4.0 12:26:02 10° WSW 12:31:08 33° NW 12:36:15 10° N
IRS-1C Rocket 4.0 12:28:51 32° SSE 12:31:21 81° ENE 12:36:39 10° NNW
Okean 1 4.0 12:32:27 32° ENE 12:32:27 32° ENE 12:35:19 10° NNE
NOSS 3-4 (A) 4.0 12:30:27 10° NW 12:37:12 69° NE 12:41:34 28° SE
Terra 4.2 12:34:18 10° SW 12:37:18 17° W 12:40:18 10° NW
Cosmos 1486 Rocket 4.0 12:32:10 10° NNW 12:37:26 69° ENE 12:39:23 39° SE
NOSS 3-4 (C) 4.0 12:31:05 10° NW 12:37:51 68° NE 12:42:13 28° SE
Cosmos 1461 3.7 12:34:21 10° SW 12:37:54 45° NW 12:41:28 10° NNE
Cosmos 220 Rocket 3.9 12:37:20 26° SSW 12:39:33 75° WNW 12:43:39 10° NNE
Meteor 2-10 4.3 12:36:30 10° N 12:42:13 66° ENE 12:44:22 38° SE
Cosmos 2098 Rocket 3.1 12:41:21 37° S 12:43:15 84° E 12:47:34 10° N
Cosmos 1076 Rocket 4.0 12:44:01 10° N 12:48:05 42° ENE 12:48:30 41° E
Helios 1A 4.2 12:45:44 10° NE 12:48:15 25° ENE 12:48:15 25° ENE
Cosmos 1437 Rocket 4.0 12:47:47 20° SW 12:49:42 35° WNW 12:53:02 10° N
Cosmos 2034 Rocket 4.2 12:49:26 36° SSE 12:51:48 57° E 12:58:00 10° NNE
ISS -1.5 12:51:35 10° NW 12:54:22 23° N 12:56:44 12° NE
Cosmos 2278 3.8 12:49:15 10° NNW 12:54:57 72° WSW 12:57:01 40° S
Cosmos 540 Rocket 3.6 12:55:05 47° SE 12:55:55 53° ESE 13:00:56 10° NNE
Cosmos 2151 4.1 12:52:35 10° NNW 12:56:20 35° W 12:57:50 26° SW
USA 290 2.9 12:57:45 46° NNE 12:57:45 46° NNE 13:00:05 10° NNE
Meteor 1-5 Rocket 4.2 12:51:12 10° N 12:56:59 88° W 12:59:16 40° S
Cosmos 1606 Rocket 3.4 12:58:37 55° SSW 12:59:33 87° WNW 13:03:53 10° N
SL-16 R/B 2.7 12:54:05 10° NW 12:59:34 51° WSW 13:01:43 34° SSW
DELTA 2 R/B (1) 3.8 12:54:57 10° W 13:00:16 46° S 13:00:45 45° S
Okean O Rocket 4.0 13:05:19 10° SW 13:07:48 15° W 13:10:19 10° NW
Cosmos 1726 Rocket 3.1 13:08:09 81° SE 13:08:17 84° E 13:12:21 10° N
Nadezhda 4 Rocket 4.0 13:04:57 10° N 13:11:05 78° W 13:13:25 40° S
Geosat 3.9 13:09:14 10° NNE 13:14:13 66° ESE 13:14:58 58° SSE
Cosmos 1634 Rocket 4.3 13:14:36 42° SE 13:15:53 48° E 13:21:48 10° NNE
Ariane Rocket 4.0 13:17:46 28° SW 13:19:33 37° W 13:24:16 10° NNW
Okean 1-7 Rocket 4.2 13:18:55 10° NNW 13:23:13 47° W 13:24:01 42° SW
Cosmos 2333 Rocket 3.2 13:21:24 10° NW 13:26:32 36° WSW 13:28:13 30° SW
Cosmos 2195 Rocket 4.4 13:23:06 10° N 13:29:19 82° W 13:31:07 49° S
Cosmos 1766 4.2 13:27:20 10° N 13:29:22 35° NNE 13:29:22 35° NNE
Cosmos 1833 4.3 13:28:33 35° SW 13:31:02 75° WNW 13:36:42 10° NNE
Cosmos 2297 Rocket 4.1 13:32:59 16° E 13:32:59 16° E 13:35:22 10° ENE
Cosmos-2242 2.9 13:32:48 75° NNE 13:32:48 75° NNE 13:36:37 10° N
IKONOS-2 4.4 13:28:25 10° NNE 13:32:25 83° N 13:32:25 83° N
Cosmos 2026 Rocket 4.0 13:27:27 10° N 13:33:52 90° W 13:35:39 51° S
Cosmos 1763 Rocket 3.8 13:34:01 37° SW 13:36:01 63° WNW 13:41:16 10° NNE
Cosmos 1627 Rocket 4.5 13:30:20 10° N 13:36:46 90° WNW 13:38:30 52° S
Meteor 2-6 Rocket 4.5 13:37:27 51° SE 13:38:16 55° E 13:44:04 10° NNE
Cosmos 1898 Rocket 4.3 13:35:27 10° N 13:40:17 38° ENE 13:41:14 35° E
Cosmos 2360 Rocket 2.7 13:36:17 10° NW 13:41:41 46° WSW 13:42:42 42° SW
Cosmos 2322 4.4 13:37:24 10° NNW 13:42:52 45° ENE 13:44:19 37° E
Cosmos 990 Rocket 4.0 13:41:37 10° NNW 13:46:44 64° WSW 13:47:12 61° SW
CZ-2C R/B 4.0 13:50:22 10° NNE 13:54:13 54° ENE 13:54:13 54° ENE
Cosmos 44 3.4 13:49:40 10° NNW 13:55:06 81° NE 13:55:34 72° ESE
Cosmos 2219 Rocket 2.3 13:49:51 10° NNW 13:55:25 58° WSW 13:56:04 54° SW
Cosmos 2221 3.5 13:57:43 36° NE 13:57:43 36° NE 14:00:42 10° NNE
Cosmos 1953 Rocket 4.4 13:55:53 10° NNW 13:59:51 39° W 13:59:51 39° W
Helios 1B rocket 3.4 14:05:27 36° NW 14:05:27 36° NW 14:07:45 10° NNW
Cosmos 1536 3.8 14:04:01 10° NNW 14:06:36 39° NW 14:06:36 39° NW
Cosmos 841 Rocket 3.6 14:08:32 62° E 14:08:32 62° E 14:13:27 10° NNE
Cosmos 2058 Rocket 3.7 14:08:54 46° WNW 14:08:54 46° WNW 14:13:05 10° N
Cosmos 2322 Rocket 3.6 14:08:30 10° NW 14:12:56 24° WSW 14:13:37 23° WSW
GP-B 4.3 14:09:47 10° NNE 14:13:05 32° ENE 14:13:05 32° ENE
Cosmos 1470 4.3 14:10:29 10° N 14:12:14 29° N 14:12:14 29° N
Cosmos 2142 Rocket 4.4 14:21:49 65° SSE 14:22:46 79° E 14:28:59 10° N
Cosmos 2180 Rocket 4.4 14:23:05 65° SSE 14:24:00 78° E 14:30:20 10° N
ARIANE 5 R/B 2.8 14:25:28 67° NW 14:25:28 67° NW 14:29:25 10° NNW
ALOS 2 2.8 14:27:02 67° N 14:27:02 67° N 14:30:53 10° NNW
Meteor 2-9 Rocket 4.0 14:21:07 10° N 14:26:33 88° W 14:26:50 81° S
Cosmos 372 Rocket 4.1 14:23:58 10° NNW 14:28:46 60° W 14:28:46 60° W
ISS -1.3 14:28:26 10° NW 14:29:40 20° NW 14:29:40 20° NW
Cosmos 2237 Rocket 3.1 14:26:29 10° NNW 14:31:52 42° ENE 14:33:25 34° E
CZ-2C R/B 3.4 14:31:45 37° E 14:32:34 39° ENE 14:37:23 10° N
NOSS 0 Rocket 3.9 14:28:25 10° NNW 14:34:37 76° ENE 14:35:40 61° SE
Cosmos 1975 4.1 14:31:50 10° NNW 14:34:08 36° NNW 14:34:08 36° NNW
Cosmos 1980 4.4 14:30:33 10° NNW 14:36:01 48° ENE 14:37:18 41° E
USA 234 3.1 14:29:55 10° NE 14:36:29 75° SE 14:37:55 56° SSW
Spot 4 4.1 14:37:12 61° WNW 14:37:12 61° WNW 14:41:36 10° NNW
RESURS DK-1 3.4 14:33:51 10° NNW 14:36:32 41° NW 14:36:32 41° NW
Meteor 2-4 Rocket 4.3 14:41:40 41° E 14:41:43 41° E 14:46:49 10° NNE
Cosmos 2227 Rocket 3.6 14:42:13 25° E 14:42:13 25° E 14:46:20 10° NE
COSMOS 2428 2.6 14:36:31 10° NNW 14:42:14 75° WSW 14:42:24 74° SW
Meteor 1-11 Rocket 3.5 14:37:27 10° N 14:43:08 83° E 14:43:28 78° SE
Meteor 1-10 Rocket 4.2 14:45:12 74° SSW 14:45:48 87° W 14:51:47 10° N
Cosmos 858 Rocket 4.5 14:40:58 10° NNW 14:46:09 71° ENE 14:46:15 71° ENE
BREEZE-M DEB (TANK) 4.3 14:27:14 10° SW 14:48:41 62° SSE 14:54:20 10° ENE
ARGOS Delta rocket 4.2 14:43:52 10° N 14:48:59 63° WNW 14:49:22 61° W
PSLV R/B 4.0 14:45:10 10° N 14:48:54 59° NNW 14:48:54 59° NNW
Cosmos 1937 Rocket 3.4 14:44:20 10° NNW 14:49:12 74° WNW 14:49:12 74° WNW
Cosmos 1766 Rocket 4.5 14:46:49 10° N 14:50:23 41° NE 14:50:23 41° NE
Cosmos 2263 Rocket 3.9 14:52:40 19° E 14:52:40 19° E 14:56:13 10° ENE
Lacrosse 4 Rocket 3.0 14:55:01 26° ENE 14:55:01 26° ENE 14:57:04 10° NE
Meteor 2-20 Rocket 4.3 14:57:12 62° ESE 14:57:35 64° E 15:03:14 10° NNE
ACS3 Solar Sail 2.9 14:53:54 10° NNE 14:59:04 30° E 14:59:54 29° ESE
Meteor 1-27 Rocket 3.6 15:00:42 75° SSE 15:01:09 82° E 15:06:55 10° NNE
Meteor 2-20 4.3 15:06:13 66° SW 15:07:01 77° W 15:13:09 10° N
MetOp-A 4.0 15:10:01 67° WNW 15:10:01 67° WNW 15:14:23 10° NNW
CZ-2C R/B 3.2 15:04:30 10° NNE 15:10:18 82° WNW 15:10:55 71° SW
SeaSat 1 3.4 15:10:39 35° E 15:11:54 43° NE 15:16:32 10° NNW
Cosmos 2297 Rocket 2.1 15:14:44 69° WSW 15:15:16 75° WNW 15:20:58 10° NNE
Cosmos 2266 Rocket 4.4 15:22:24 10° NNW 15:28:05 45° W 15:28:39 43° WSW
Cosmos 1238 Rocket 3.7 15:29:51 46° NNW 15:29:51 46° NNW 15:33:08 10° N
Meteor 2-10 Rocket 3.7 15:25:25 10° N 15:30:58 72° ENE 15:31:44 63° SE
BREEZE-M R/B 4.0 15:27:25 10° WNW 15:33:20 72° SSW 15:40:30 10° SE
Cosmos 1066 Rocket 3.9 15:39:40 79° SSW 15:40:02 89° W 15:45:34 10° N
Cosmos 1814 Rocket 3.8 15:40:06 86° S 15:40:13 89° ESE 15:45:29 10° NNE
Okean 3 Rocket 3.9 15:38:47 10° N 15:43:11 60° ENE 15:43:11 60° ENE
Cosmos 1758 4.4 15:40:47 10° N 15:43:27 36° NE 15:43:27 36° NE
Cosmos 1842 Rocket 3.8 15:48:32 64° NW 15:48:32 64° NW 15:52:29 10° N
BlueWalker 3 3.2 15:53:16 36° NNE 15:53:16 36° NNE 15:55:36 10° NE
Landsat 5 4.1 15:49:23 10° N 15:52:44 46° NW 15:52:44 46° NW
Cosmos 1655 Rocket 4.1 15:48:49 10° NNW 15:54:54 57° W 15:55:49 52° SW
Meteor 1-18 Rocket 4.0 15:54:18 70° SSW 15:54:59 88° WNW 16:00:40 10° N
Sich 1 3.2 15:53:11 10° N 15:56:46 65° NNW 15:56:46 65° NNW
IDEFIX/ARIANE 42P 3.9 15:53:53 10° NE 15:58:26 29° E 15:59:40 27° ESE
Cosmos 1805 Rocket 3.9 15:56:00 10° N 16:00:15 54° ENE 16:00:22 54° E
Cosmos 1340 Rocket 3.7 15:56:40 10° N 16:00:11 40° ENE 16:00:11 40° ENE
SL-14 R/B 3.8 16:01:58 53° N 16:01:58 53° N 16:04:58 10° N
SL-16 R/B 2.6 15:58:19 10° NNW 16:03:59 61° ENE 16:06:34 32° SE
Cosmos 2219 3.9 16:03:34 38° SE 16:04:29 40° ESE 16:09:43 10° NE
ADEOS Rocket 4.4 16:04:27 10° NNE 16:11:28 38° E 16:15:15 23° SE
CZ-2C R/B 3.7 16:13:11 29° W 16:13:11 29° W 16:17:22 10° NW
Cosmos 2237 Rocket 3.2 16:10:47 10° NW 16:15:11 31° W 16:15:11 31° W
Spot 1 4.3 16:13:34 10° NNE 16:18:16 75° ESE 16:18:47 67° SSE
USA 234 4.2 16:13:07 10° NE 16:19:15 45° NNW 16:25:14 11° W
In-Cosmos 22 4.1 16:19:04 58° SW 16:20:01 70° WNW 16:25:39 10° N
Cosmos 1953 4.0 16:19:04 10° NNE 16:22:06 24° ENE 16:23:03 22° E
Cosmos 1408 Rocket 3.4 16:20:02 10° N 16:24:13 79° WNW 16:24:13 79° WNW
Cosmos 2227 Rocket 2.7 16:23:59 41° WSW 16:25:27 51° WNW 16:31:00 10° NNE
Iridium 4 Rocket 4.4 16:26:39 36° W 16:27:32 38° W 16:32:55 10° NNW
Cosmos 2084 3.9 16:24:54 10° NNW 16:28:58 57° NE 16:30:33 33° ESE
Lacrosse 4 Rocket 3.2 16:30:24 20° WNW 16:31:11 21° NW 16:34:21 10° N
ATLAS 2AS CENTAUR R/B 3.7 16:26:01 10° NNW 16:32:30 45° NE 16:38:58 10° ESE
Cosmos 2263 Rocket 2.3 16:34:19 48° WSW 16:35:43 66° WNW 16:41:17 10° NNE
ACS3 Solar Sail 2.3 16:35:54 10° N 16:41:33 46° WNW 16:43:23 36° WSW
NOSS 2-2 (C) 3.7 16:44:16 41° E 16:44:16 41° E 16:46:33 10° NE
S3M 3.9 16:41:29 41° S 16:43:51 84° E 16:50:02 10° N
Cosmos 1943 3.9 16:43:19 10° NNW 16:48:50 53° ENE 16:54:17 10° SE
SeaSat 1 3.6 16:50:14 27° W 16:50:14 27° W 16:53:36 10° NW
ADEOS II 4.4 16:50:06 10° NE 16:53:16 16° E 16:56:26 10° SE
Cosmos 2315 Rocket 4.1 16:50:40 34° S 16:53:37 80° E 16:59:58 10° N
MSX 3.8 16:51:48 10° NNE 16:57:37 86° WNW 16:59:56 39° SSW
Cosmos 1151 Rocket 3.9 16:58:38 32° W 16:58:56 32° WNW 17:02:51 10° N
Cosmos 1703 3.2 16:59:36 53° NW 16:59:36 53° NW 17:02:18 10° N
Cosmos 2297 Rocket 4.4 16:57:05 10° WNW 17:00:20 15° NW 17:03:34 10° N
Tiangong 0.2 17:04:13 16° ESE 17:04:13 16° ESE 17:05:03 10° ESE
Cosmos 1570 Rocket 4.0 17:01:32 44° SW 17:03:13 75° WNW 17:08:33 10° NNE
Resurs 1-4 Rocket 3.6 16:59:54 10° NE 17:04:31 30° E 17:08:22 13° SSE
Cosmos 1633 Rocket 3.3 17:02:21 10° N 17:06:39 64° E 17:08:47 28° SSE
Cosmos 1844 Rocket 3.3 17:04:15 27° SSE 17:06:55 47° ESE 17:12:15 10° NE
Cosmos 2082 3.7 17:05:46 39° SW 17:07:55 77° WNW 17:13:35 10° NNE
Cosmos 1125 Rocket 4.0 17:04:31 10° NW 17:09:26 40° WSW 17:10:15 38° SW
CENTAUR R/B 2.6 17:11:01 33° S 17:13:23 59° ESE 17:19:55 10° NE
Cosmos 1709 Rocket 4.0 17:08:19 10° NNW 17:14:26 65° W 17:17:39 29° SSW
NOSS 2-2 (D) 3.3 17:15:06 45° SE 17:15:26 47° SE 17:18:25 10° NE
CZ-4C R/B 4.2 17:09:12 10° NNW 17:15:34 41° NE 17:23:25 10° ESE
Cosmos 773 Rocket 4.1 17:18:43 36° SW 17:20:39 61° WNW 17:25:44 10° NNE
Meteor 1-21 4.3 17:17:54 25° S 17:21:13 72° E 17:26:49 10° NNE
Atlas Centaur 2 3.7 17:23:32 25° SSW 17:25:06 27° S 17:31:29 10° ESE
Cosmos 2150 Rocket 4.0 17:24:09 10° NNW 17:29:37 82° WSW 17:35:03 10° SSE
BlueWalker 3 4.0 17:27:15 10° WNW 17:30:03 21° N 17:32:52 10° NE
CRYOSAT 2 4.4 17:32:30 29° SSW 17:34:56 63° W 17:39:48 10° N
Meteor 1-13 Rocket 4.5 17:32:51 29° SW 17:35:35 54° WNW 17:41:14 10° N
Okean 2 3.4 17:33:47 28° S 17:35:40 67° E 17:39:28 10° NNE
FENGYUN 3A 4.0 17:32:36 10° N 17:37:50 52° WNW 17:40:36 27° SW
IDEFIX/ARIANE 42P 3.3 17:33:07 10° N 17:37:55 38° WNW 17:40:21 24° WSW
COSMOS 2441 4.3 17:33:37 10° N 17:38:24 76° WNW 17:40:59 27° SSW
Cosmos 1666 Rocket 3.9 17:34:37 10° NNW 17:38:52 46° W 17:40:31 31° SW
Cosmos 2208 Rocket 4.4 17:37:23 28° SW 17:39:59 52° WNW 17:45:08 10° NNE
BREEZE-M DEB (TANK) 4.4 17:40:21 10° NW 17:43:18 24° N 17:45:12 10° ENE
H-2A R/B 2.8 17:39:09 10° NNE 17:44:25 52° E 17:49:33 11° S
CZ-2D R/B 2.5 17:39:27 10° NNE 17:44:50 62° ESE 17:49:30 14° S
Cosmos 1844 3.7 17:41:18 24° SSW 17:44:53 85° ESE 17:50:42 10° NNE
SL-16 R/B 3.4 17:43:25 10° NW 17:47:33 21° W 17:48:21 20° WSW
Cosmos 2219 4.2 17:45:26 19° WSW 17:48:40 33° NW 17:53:45 10° N
NPP 4.4 17:47:03 10° N 17:52:02 39° WNW 17:55:04 21° WSW
USA 281 3.2 17:46:10 10° SSE 17:52:44 86° WSW 17:59:22 10° NNW
Cosmos 2344 4.3 17:47:13 11° S 17:54:31 44° ESE 18:01:15 10° NE
NOAA 11 4.4 17:51:18 10° N 17:56:37 55° WNW 18:00:16 20° SW
Cosmos 1953 3.5 17:54:05 10° NW 17:56:53 21° W 17:57:15 21° W
ADEOS Rocket 3.9 17:49:42 10° N 17:57:00 49° WNW 18:02:10 18° SW
DMSP B5D2-2 4.0 17:52:19 11° S 17:57:21 66° WSW 18:02:34 10° NNW
Cosmos 2154 Rocket 4.1 17:51:21 10° N 17:57:37 79° E 18:03:49 10° S
NOSS 3-2 (A) 3.9 17:54:49 15° S 17:58:34 42° ESE 18:03:52 10° NE
Envisat 3.0 17:54:42 10° N 17:59:46 75° WNW 18:03:34 18° SSW
Cosmos 2074 Rocket 4.0 17:53:56 10° N 18:00:15 88° W 18:06:30 10° S
Cosmos 1515 Rocket 3.6 17:57:45 21° SSW 18:00:38 69° W 18:05:04 10° N
IRIDIUM 114 4.3 17:59:31 10° N 18:04:47 89° E 18:10:00 10° S
Cosmos 2184 Rocket 3.9 18:00:08 10° N 18:06:20 82° W 18:12:29 10° S
EXPRESS MD2 4.0 18:04:25 10° NW 18:06:34 33° NNE 18:09:21 10° E
ARGOS 4.5 18:02:08 10° NNE 18:07:06 37° E 18:12:01 10° SSE
Cosmos 1400 Rocket 3.9 18:06:08 10° N 18:09:47 44° ENE 18:13:24 10° SSE
IRIDIUM 103 4.3 18:08:42 10° N 18:13:56 76° W 18:19:07 10° S
ALOS 2.3 18:13:57 10° N 18:18:28 64° WNW 18:22:23 13° SSW
NOSS 2-2 (E) 3.3 18:18:32 18° WSW 18:20:44 46° NW 18:23:40 10° NNE
Cosmos 2263 Rocket 4.3 18:18:04 10° WNW 18:20:45 13° NW 18:23:26 10° NNW
Cosmos 1867 3.7 18:16:55 10° NW 18:22:11 50° WSW 18:27:25 10° SSE
ATLAS 2AS CENTAUR R/B 2.9 18:17:02 10° NW 18:23:24 45° WSW 18:29:49 10° S
H-2A R/B 2.4 18:26:44 10° S 18:30:09 45° W 18:33:37 10° NNW
Cosmos 1610 Rocket 4.5 18:25:14 10° N 18:31:27 84° W 18:37:42 10° S
Cosmos 1943 4.3 18:28:03 10° NW 18:32:25 24° WSW 18:36:46 10° SSW
ADEOS II 2.1 18:28:06 10° N 18:33:18 69° WNW 18:38:29 10° SSW
Cosmos 2285 Rocket 4.4 18:28:31 10° NW 18:34:20 40° WSW 18:40:10 10° SSW
Cosmos 1733 Rocket 4.3 18:30:13 10° N 18:34:24 44° ENE 18:38:30 10° SSE
Okean 3 3.8 18:33:46 12° SSW 18:37:20 43° WNW 18:41:10 10° N
METEOR-M 4.1 18:32:54 10° NNE 18:38:16 84° WNW 18:43:36 10° SSW
Tiangong -0.8 18:36:23 13° WSW 18:38:24 22° SSW 18:40:56 10° SSE
Cosmos 1538 Rocket 4.0 18:38:01 10° SSW 18:43:09 76° WNW 18:48:19 10° NNE
Resurs 1-4 Rocket 2.8 18:39:29 10° N 18:44:19 38° WNW 18:49:06 10° SW
BREEZE-M DEB (TANK) 3.1 18:42:01 10° WNW 18:46:39 38° N 18:49:04 10° ENE
Cosmos 1833 Rocket 3.6 18:44:18 10° NNW 18:49:51 55° ENE 18:55:22 10° SE
Cosmos 1844 Rocket 3.8 18:46:09 10° WSW 18:50:59 29° NW 18:55:50 10° N
Cosmos 1933 Rocket 4.4 18:49:09 10° NNW 18:53:00 31° W 18:56:48 10° SSW
CZ-2C R/B 3.6 18:52:08 10° NNE 18:56:25 39° E 19:00:40 10° SSE
Nadezhda 1 Rocket 4.3 18:52:50 10° SSW 18:58:42 49° WNW 19:04:35 10° N
SL-16 R/B 2.6 18:52:34 10° SSE 18:58:51 89° WSW 19:05:08 10° NNW
Cosmos 1603 4.4 18:54:01 10° NW 18:59:04 33° WSW 19:04:07 10° SSW
CZ-4C R/B 3.1 18:57:08 10° NW 19:04:17 62° WSW 19:12:59 10° SSE
